RH
100 100 100 100 100 100 100 100 101 101 100 100 101 101 102 103 102 98 95 96 97 96 92 87 83 80 79 80 78 75 71 70 75 85 93 98 100 101 102 101 101 101
101 101 100 100 100 100 100 100 100 101 100 100 100 100 101 103 103 102 100 96 92 87 80 72 66 63 63 67 70 70 67 64 68 79 88 96 101 101 101 101 100 101
101 102 100 100 101 100 100 100 100 100 100 100 100 99 100 101 102 103 102 96 87 81 76 70 63 58 58 63 68 69 69 71 78 86 92 99 102 101 101 101 101 101
102 103 101 100 101 100 100 100 100 100 99 99 100 100 100 100 100 101 100 95 87 83 81 76 68 61 61 70 80 81 82 87 93 97 98 100 101 100 101 101 100 100
101 103 103 101 100 100 100 100 100 101 101 100 101 101 100 99 98 97 95 92 90 88 86 80 71 63 63 77 93 98 97 100 102 102 101 100 100 100 101 100 99 101
101 101 101 101 100 101 101 100 101 102 101 99 98 98 98 98 98 98 97 96 93 90 86 80 72 65 66 78 94 102 103 104 105 104 102 100 100 100 100 100 100 101
101 99 99 97 97 98 98 98 99 98 96 95 97 99 100 101 101 101 101 100 95 90 85 80 73 70 73 80 89 95 99 101 103 104 102 101 102 101 101 101 100 101
100 99 100 98 97 98 98 98 97 97 96 96 98 100 100 102 102 101 103 103 100 96 93 90 86 85 86 87 88 91 94 95 96 97 97 97 98 99 100 101 100 99
101 100 99 99 99 99 99 100 99 99 99 98 98 98 98 99 100 101 102 102 101 100 100 100 99 98 97 96 94 93 94 96 97 96 96 97 97 99 100 101 100 100
97 95 96 98 99 100 101 102 102 101 101 101 101 102 100 99 99 100 101 101 101 101 101 100 100 100 101 100 99 98 97 98 99 99 99 100 100 100 100 101 101 101
91 93 97 99 101 103 103 103 104 103 102 102 103 104 103 101 102 102 102 101 100 101 102 102 101 100 100 100 100 101 100 100 100 100 100 100 100 101 100 100 101 101
88 93 99 102 103 101 96 95 98 98 97 97 97 99 100 101 102 102 101 99 97 97 98 99 101 101 101 101 100 100 100 100 100 100 100 100 100 100 100 100 100 100
87 97 104 105 96 84 79 83 91 94 95 95 95 96 98 98 99 99 99 98 95 92 90 89 91 94 96 98 100 100 100 100 100 100 100 101 101 101 102 102 101 101
85 100 105 95 81 75 81 91 99 101 103 103 103 102 102 102 101 99 96 92 86 81 78 76 76 77 79 82 85 88 90 91 93 94 95 96 97 98 99 99 99 99
93 103 101 92 87 89 95 99 101 102 104 105 104 102 100 98 95 91 86 80 74 70 67 65 63 62 63 66 69 72 74 76 77 78 80 82 84 85 87 88 89 89
103 103 100 100 101 100 98 97 100 101 99 94 87 83 82 81 80 78 75 71 68 64 62 60 58 57 58 60 63 65 67 69 70 70 70 70 71 72 74 76 78 79
101 102 104 104 102 100 99 100 98 92 82 72 65 63 65 68 71 72 71 69 66 63 61 59 58 58 60 63 66 69 70 71 73 74 75 75 75 75 75 75 76 78
102 101 97 95 96 98 95 87 78 69 62 59 60 62 64 66 69 71 71 70 68 65 61 59 59 62 67 72 77 79 80 80 79 79 80 83 85 85 85 84 83 83
101 93 83 82 86 86 77 66 58 55 55 57 60 61 62 65 70 74 76 75 72 67 62 59 59 62 66 72 76 79 80 80 78 78 78 80 82 83 83 83 82 81
95 85 78 78 77 72 65 58 53 54 57 59 59 59 61 68 75 79 79 77 72 67 63 60 59 59 60 62 64 66 68 67 67 67 67 68 68 69 69 69 68 67
89 82 76 71 66 62 59 58 60 66 72 74 73 71 73 79 83 83 81 78 74 69 66 63 62 59 58 56 56 56 55 54 53 53 53 53 53 54 54 54 53 52
83 78 72 66 63 63 67 73 81 89 92 90 87 86 86 87 86 82 80 77 74 70 67 65 62 59 57 55 54 53 51 49 49 48 48 48 48 48 48 47 46 45
80 77 76 75 77 81 86 94 101 103 100 95 91 88 86 83 80 78 76 73 71 68 65 63 61 59 56 53 52 51 49 48 48 48 48 47 47 47 46 46 46 46
84 85 88 92 96 98 101 104 105 102 96 90 85 81 78 76 74 73 71 68 66 63 61 58 57 54 53 51 51 51 50 50 50 50 50 51 51 51 51 50 50 49
83 86 90 95 98 99 98 97 94 90 85 81 77 74 71 70 68 65 64 62 59 57 55 54 54 54 55 55 55 56 56 55 54 53 52 52 51 50 49 48 47 46
91 93 95 96 95 93 91 88 85 81 78 74 71 67 64 62 60 58 57 56 55 56 57 58 59 60 60 60 59 57 55 53 50 48 47 46 45 44 44 43 42 41
Wind_Speed
56 54 52 51 52 52 53 53 53 54 53 53 57 61 62 58 56 55 53 52 52 52 52 53 54 56 57 59 59 59 59 60 61 62 62 62 61 61 60 60 60 61
56 55 53 51 51 52 53 54 54 54 54 54 57 61 64 61 58 57 55 54 55 56 56 56 58 59 61 62 63 62 62 61 62 62 62 61 60 59 58 58 60 60
56 56 54 52 52 52 52 52 52 53 55 56 57 59 60 60 59 59 58 58 58 59 59 59 60 61 63 63 63 63 62 62 61 61 60 58 57 56 55 56 58 58
56 56 54 53 53 54 53 52 52 53 55 56 57 57 58 58 59 61 62 62 62 62 62 61 61 62 63 63 62 61 61 60 59 58 55 52 50 52 54 55 56 56
55 56 57 58 59 59 58 57 56 57 57 58 59 60 61 61 61 62 63 64 65 65 64 63 63 63 62 61 60 60 59 57 56 55 54 51 50 52 54 54 54 55
55 58 60 60 61 61 60 59 58 58 59 59 60 62 62 63 63 64 64 65 66 66 65 64 64 63 62 60 59 59 58 57 55 55 55 54 55 57 58 58 58 59
57 59 60 60 61 61 61 60 60 60 60 61 63 65 66 66 66 65 64 64 63 63 63 63 62 61 60 59 59 59 58 58 57 56 56 56 57 58 60 62 64 64
59 60 62 63 63 63 63 62 62 63 64 65 66 66 66 65 64 61 59 58 57 57 57 58 58 58 58 59 59 59 59 59 59 59 59 59 59 60 61 63 64 65
62 62 62 63 63 63 63 62 62 62 63 63 62 62 62 61 60 58 56 55 53 53 53 54 55 56 57 58 58 59 59 60 60 61 62 62 62 63 63 64 65 65
62 62 62 61 61 61 60 60 60 60 60 60 60 59 58 58 57 57 55 55 54 54 54 55 55 56 57 58 58 59 60 60 61 62 63 64 64 65 66 67 67 67
62 62 62 61 60 60 59 59 60 60 60 60 60 58 57 56 56 56 56 56 57 57 57 58 58 59 59 59 60 60 61 61 63 63 64 65 66 67 68 69 70 70
62 62 62 61 61 60 60 60 60 59 59 58 58 58 58 58 59 60 61 61 61 60 60 60 60 61 62 62 63 64 64 65 65 66 66 67 68 69 70 70 71 72
62 62 62 61 60 60 60 59 58 58 58 58 59 60 61 62 63 65 65 65 65 65 64 64 63 63 64 65 66 67 67 68 69 69 70 70 71 72 72 73 73 74
63 62 61 59 58 59 59 58 58 58 59 61 62 63 64 65 66 66 67 67 67 67 67 67 67 67 67 68 69 69 70 71 71 72 73 73 74 74 75 76 76 77
62 60 58 56 57 59 60 61 62 63 64 64 65 65 66 67 67 67 66 66 66 66 66 67 68 69 69 70 71 72 72 73 73 74 75 75 75 76 77 77 78 79
59 57 55 56 58 61 62 64 65 66 66 66 67 67 69 69 69 69 68 68 67 67 68 68 69 70 71 71 72 73 73 74 74 75 75 76 76 77 77 78 79 80
57 56 58 60 62 64 65 66 66 65 66 67 68 70 71 72 72 72 71 70 70 70 71 72 72 73 73 73 74 75 75 75 75 76 76 77 77 78 78 79 80 81
58 60 62 65 66 66 66 65 65 66 67 69 70 71 72 73 73 73 72 72 72 73 74 75 76 76 76 77 77 78 78 78 78 78 79 79 80 81 81 82 83 84
62 64 66 67 68 67 66 66 67 69 69 70 70 71 72 73 74 74 74 75 75 76 77 77 78 78 78 79 80 80 81 81 81 81 81 82 83 83 84 84 84 85
64 66 66 67 67 67 68 69 70 70 70 71 71 73 74 75 75 76 78 79 79 79 79 79 79 80 80 81 81 82 82 82 82 82 83 83 84 85 85 86 86 87
65 66 66 67 68 69 71 72 72 72 72 73 74 75 77 77 78 79 80 80 80 80 80 79 80 81 81 82 83 83 84 84 84 84 85 86 86 87 88 88 89 89
67 68 69 70 71 72 73 74 75 75 75 76 77 79 79 80 80 80 80 80 80 80 80 80 81 82 83 83 84 85 85 85 85 85 86 86 87 88 88 89 89 89
70 72 73 74 75 75 76 76 77 77 78 78 79 80 80 80 80 80 81 81 81 82 82 82 83 84 84 84 84 85 85 84 84 84 84 85 85 86 86 87 87 88
73 74 74 75 75 76 77 77 78 78 79 79 79 80 80 80 81 81 81 82 82 82 82 82 82 82 82 82 82 83 83 82 82 82 83 84 84 85 86 87 88 89
76 76 76 76 77 77 78 78 78 79 79 79 80 80 80 80 80 80 80 80 80 80 80 80 80 80 81 81 81 82 83 83 83 84 85 86 86 87 88 89 90 91
76 76 77 77 77 77 78 78 78 78 78 78 78 78 78 78 78 78 77 77 78 78 79 80 80 81 82 83 84 85 86 86 87 87 88 88 89 89 89 90 91 91
Wind_Direction
272 273 273 274 274 272 272 273 272 273 275 275 275 273 272 273 275 275 276 276 275 275 276 279 281 282 282 281 280 279 279 277 274 272 270 269 268 268 267 265 264 263
272 272 272 274 275 274 274 274 274 275 276 278 279 274 269 271 273 274 275 276 275 276 277 280 283 285 286 284 281 280 280 278 274 271 269 268 267 267 267 266 264 263
274 274 276 277 278 277 277 277 278 279 279 279 277 273 269 270 271 273 277 277 278 279 280 283 286 289 289 286 281 280 278 276 273 270 268 266 265 264 263 263 263 263
275 275 276 276 275 275 275 275 276 276 277 275 272 270 270 272 272 275 279 280 281 283 284 285 288 291 290 285 280 278 276 274 271 269 266 263 262 263 263 263 264 263
277 276 275 273 274 275 274 273 272 271 271 271 271 272 275 277 278 279 280 281 283 284 285 286 288 289 287 282 278 276 274 272 269 267 263 259 257 257 258 260 260 260
277 277 276 275 277 278 277 275 274 273 274 275 277 279 281 282 281 281 281 282 284 285 286 286 286 286 283 279 277 275 273 271 269 266 264 261 258 256 255 257 257 257
279 281 281 281 281 281 281 280 279 279 280 281 283 283 283 282 282 282 283 283 284 284 284 284 283 281 279 277 276 275 273 272 270 268 267 265 263 261 259 259 259 260
281 281 281 281 281 281 281 281 281 281 281 282 283 283 282 282 283 283 283 283 282 281 280 279 278 277 276 276 276 275 275 274 273 272 270 269 267 265 264 263 262 262
280 280 280 279 279 280 280 281 281 281 280 281 281 281 281 282 282 282 282 281 279 277 275 274 274 274 275 275 275 275 275 275 274 273 273 272 271 270 268 267 267 266
280 281 281 281 281 281 281 282 281 281 280 280 280 280 280 280 280 279 279 278 277 275 273 272 272 272 273 274 274 273 273 273 273 273 272 272 271 271 270 270 269 268
281 281 282 282 282 282 281 281 281 280 280 281 282 282 282 281 281 280 280 279 278 277 275 274 272 272 271 272 272 272 271 271 271 271 271 271 271 271 271 271 271 270
280 280 280 280 280 281 281 282 281 281 282 283 285 286 285 285 285 285 284 284 282 280 278 276 274 273 271 271 270 270 270 270 269 269 269 270 270 270 270 270 270 270
278 278 279 279 280 282 284 285 285 285 286 287 287 287 286 285 285 285 285 285 285 283 282 280 278 276 274 272 271 270 269 269 269 269 269 269 269 269 268 268 268 269
279 279 279 281 283 286 287 287 286 286 287 287 287 286 286 285 285 285 285 286 286 286 285 284 283 281 279 277 275 273 272 271 271 271 270 270 270 270 270 270 270 270
277 277 279 281 285 286 286 286 286 286 287 287 287 287 287 286 286 286 286 286 286 286 286 286 285 284 283 281 279 278 276 275 274 274 273 273 273 273 273 273 273 273
275 276 279 282 284 284 284 284 285 285 287 287 288 288 288 287 287 287 287 287 287 287 287 286 285 284 283 282 281 280 279 278 277 276 276 276 275 275 275 275 275 275
276 279 282 283 283 283 283 283 283 285 286 287 288 288 288 288 288 287 287 287 287 287 287 287 286 284 283 282 281 280 279 279 278 278 277 277 276 276 275 275 275 275
280 282 284 285 285 284 283 283 284 285 286 286 287 287 287 287 286 286 285 285 286 286 286 286 285 284 283 282 281 280 280 279 279 278 278 277 276 276 275 275 275 274
283 284 285 284 284 283 283 283 284 285 285 286 286 286 286 285 285 284 284 284 284 284 284 284 283 282 281 280 280 279 279 279 279 278 278 277 276 276 275 275 274 274
284 283 283 282 282 282 283 284 284 285 285 285 285 285 285 284 283 283 282 283 283 283 282 282 281 280 279 279 278 278 278 278 277 277 277 277 276 276 276 275 275 275
283 282 282 282 283 283 283 284 284 284 284 284 284 284 283 283 282 282 281 281 281 281 281 280 280 279 279 278 278 278 277 277 277 277 277 276 276 276 276 276 276 275
283 283 284 284 284 283 283 283 283 283 283 282 282 282 281 281 281 281 281 281 281 281 281 280 280 280 279 279 279 278 278 278 278 277 277 277 276 276 276 276 276 276
283 283 282 282 282 281 281 281 281 281 281 281 280 280 281 281 281 282 282 282 282 282 281 281 281 280 280 279 279 279 278 278 278 278 277 277 277 277 277 277 276 276
281 281 280 280 280 280 280 280 280 280 280 280 280 280 281 281 281 281 282 282 281 281 281 281 280 280 280 279 279 279 278 278 278 278 278 278 277 277 277 277 277 277
280 280 280 280 280 280 280 280 280 280 280 280 280 280 280 281 281 281 281 281 281 281 281 281 280 280 280 280 279 279 279 279 279 279 278 278 278 278 277 277 277 277
279 279 280 280 280 280 280 280 280 280 281 281 281 281 281 281 282 282 282 282 282 282 281 281 281 281 281 281 281 281 280 280 280 279 279 279 278 278 278 278 278 277